M I D A S
Marine Information and Data Acquisition System
Tripno 740 of the Zeeleeuw from 2004-06-28 06:41:01 to 2004-06-28 13:31:46
Back to CruiseResearch ActivitiesStationsMapUnderway DataData graphs

EquipmentUnitsComment
TimeDGPSUTC
LatitudeDGPSDM.mWGS84
LongitudeDGPSDM.mWGS84
TemperatureSBE03/SBE38deg celciusITS90
ConductivitySBE21S/mITS90
SalinitySBE21 Practical Salinity Units
ChlorophylAChelsea fluorimeterg/lCalibrated in Aceton
Missing or incorrect values are displayed as -999
Sea surface data collected by the RV Zeeleeuw from 2004-06-28 06:41:01 to 2004-06-28 13:31:46
Time Latitude Longitude Temperature Conductivity Salinity ChlorophylA
2004-06-28 06:42:04 51°13.6 2°56.078 21.038048 0.025442 0.127603 7.376426
2004-06-28 06:43:05 51°13.628 2°55.988 21.033104 0.025442 0.12761 7.376426
2004-06-28 06:44:05 51°13.658 2°55.878 21.034539 0.025442 0.127617 7.309007
2004-06-28 06:45:04 51°13.663 2°55.788 21.097237 0.025442 0.127625 7.342717
2004-06-28 06:46:04 51°13.682 2°55.804 21.028518 0.025442 0.127634 7.342717
2004-06-28 06:47:04 51°13.7 2°55.788 21.060853 0.025442 0.12764 7.342717
2004-06-28 06:48:04 51°13.776 2°55.685 21.02776 0.025442 0.127646 7.376426
2004-06-28 06:49:04 51°13.884 2°55.589 21.053917 0.025442 0.127652 7.342717
2004-06-28 06:50:04 51°14.005 2°55.504 21.017989 0.025442 0.127657 7.342717
2004-06-28 06:51:04 51°14.142 2°55.413 21.060295 0.025442 0.127664 7.376426
2004-06-28 06:52:04 51°14.272 2°55.249 21.051963 0.025442 0.127671 7.342717
2004-06-28 06:53:04 51°14.4 2°55.027 20.959093 0.025442 0.127676 7.342717
2004-06-28 06:54:04 51°14.585 2°54.844 20.96049 0.025442 0.127688 7.342717
2004-06-28 06:55:05 51°14.778 2°54.66 21.017989 0.025442 0.127696 7.342717
2004-06-28 06:56:02 51°14.959 2°54.492 21.001434 0.025442 0.127705 7.376426
2004-06-28 06:57:04 51°15.155 2°54.307 21.012883 0.025442 0.127711 7.376426
2004-06-28 06:58:05 51°15.349 2°54.128 21.006142 0.025442 0.127717 7.342717
2004-06-28 06:59:05 51°15.539 2°53.948 20.961887 0.025442 0.127717 7.376426
2004-06-28 07:00:05 51°15.729 2°53.769 20.956139 0.025442 0.127718 7.376426
2004-06-28 07:01:05 51°15.92 2°53.593 20.984157 0.025442 0.127718 7.376426
2004-06-28 07:02:04 51°16.123 2°53.463 20.973462 0.025442 0.127717 7.309007
2004-06-28 07:03:05 51°16.331 2°53.317 20.963923 0.025442 0.127715 7.376426
2004-06-28 07:04:05 51°16.532 2°53.169 20.980646 0.025442 0.127722 7.342717
2004-06-28 07:05:04 51°16.728 2°53.026 20.971866 0.025442 0.127728 7.376426
2004-06-28 07:06:04 51°16.928 2°52.874 20.983758 0.025442 0.127735 7.342717
2004-06-28 07:07:05 51°17.133 2°52.715 20.990342 0.025442 0.127744 7.342717
2004-06-28 07:08:02 51°17.324 2°52.569 20.980965 0.025442 0.127752 7.342717
2004-06-28 07:09:03 51°17.508 2°52.369 20.998362 0.025442 0.127764 7.309007
2004-06-28 07:10:05 51°17.665 2°52.113 20.988666 0.025442 0.127774 7.342717
2004-06-28 07:11:05 51°17.809 2°51.854 20.996966 0.025442 0.127784 7.342717
2004-06-28 07:12:05 51°17.954 2°51.599 21.000716 0.025442 0.127794 7.309007
2004-06-28 07:13:03 51°18.093 2°51.351 21.005703 0.025442 0.127805 7.342717
2004-06-28 07:14:05 51°18.234 2°51.075 21.006221 0.025442 0.127816 7.309007
2004-06-28 07:15:02 51°18.357 2°50.815 21.007298 0.025442 0.127827 7.376426
2004-06-28 07:16:03 51°18.489 2°50.534 21.026005 0.025442 0.127838 7.376426
2004-06-28 07:17:05 51°18.622 2°50.252 21.023931 0.025442 0.12785 7.309007
2004-06-28 07:18:05 51°18.75 2°49.978 21.019584 0.025442 0.127862 7.342717
2004-06-28 07:19:02 51°18.87 2°49.718 21.021179 0.025442 0.127874 7.309007
2004-06-28 07:20:05 51°19.003 2°49.436 21.026843 0.025442 0.127884 7.376426
2004-06-28 07:21:05 51°19.131 2°49.164 21.029435 0.025442 0.127898 7.275298
2004-06-28 07:22:05 51°19.259 2°48.89 21.045026 0.025442 0.127911 7.342717
2004-06-28 07:23:05 51°19.365 2°48.596 21.038686 0.025442 0.127923 7.309007
2004-06-28 07:24:05 51°19.467 2°48.299 21.044189 0.025442 0.127937 7.342717
2004-06-28 07:25:05 51°19.556 2°47.993 21.045026 0.025442 0.127949 7.342717
2004-06-28 07:26:04 51°19.645 2°47.692 21.051963 0.025442 0.127959 7.342717
2004-06-28 07:27:03 51°19.734 2°47.393 21.051285 0.025442 0.127969 7.309007
2004-06-28 07:28:05 51°19.812 2°47.071 21.05583 0.025339 0.127468 7.309007
2004-06-28 07:29:04 51°19.883 2°46.764 21.062128 0.025442 0.127993 7.342717
2004-06-28 07:30:04 51°19.956 2°46.449 21.069861 0.025442 0.128005 7.309007
2004-06-28 07:31:05 51°20.03 2°46.13 21.068346 0.025339 0.127503 7.309007
2004-06-28 07:32:05 51°20.105 2°45.822 21.079506 0.025442 0.12803 7.342717
2004-06-28 07:33:04 51°20.167 2°45.514 21.075002 0.025339 0.127532 7.342717
2004-06-28 07:34:03 51°20.202 2°45.195 21.076278 0.025339 0.127542 7.342717
2004-06-28 07:35:04 51°20.239 2°44.865 21.077513 0.025339 0.127556 7.309007
2004-06-28 07:36:05 51°20.278 2°44.534 21.082614 0.025339 0.127571 7.309007
2004-06-28 07:37:04 51°20.317 2°44.213 21.091659 0.025339 0.127586 7.275298
2004-06-28 07:38:03 51°20.357 2°43.895 21.101062 0.025339 0.1276 7.376426
2004-06-28 07:39:05 51°20.399 2°43.563 21.098711 0.025339 0.127617 7.342717
2004-06-28 07:40:05 51°20.439 2°43.237 21.097875 0.025339 0.127632 7.342717
2004-06-28 07:41:05 51°20.478 2°42.91 21.108073 0.025339 0.127648 7.342717
2004-06-28 07:42:05 51°20.516 2°42.584 21.111698 0.025339 0.127665 7.342717
2004-06-28 07:43:05 51°20.553 2°42.261 21.107316 0.025339 0.127683 7.309007
2004-06-28 07:44:05 51°20.583 2°41.94 21.110304 0.025339 0.127699 7.342717
2004-06-28 07:45:05 51°20.611 2°41.616 21.114646 0.025339 0.127716 7.309007
2004-06-28 07:46:05 51°20.638 2°41.291 21.115801 0.025339 0.127734 7.376426
2004-06-28 07:47:03 51°20.665 2°40.975 21.128506 0.025339 0.127755 7.309007
2004-06-28 07:48:05 51°20.694 2°40.636 21.124762 0.025339 0.127775 7.342717
2004-06-28 07:49:05 51°20.717 2°40.308 21.129661 0.025339 0.127794 7.309007
2004-06-28 07:50:03 51°20.74 2°39.989 21.141686 0.025339 0.127818 7.342717
2004-06-28 07:51:05 51°20.766 2°39.648 21.131094 0.025339 0.127833 7.309007
2004-06-28 07:52:05 51°20.791 2°39.317 21.14093 0.025339 0.127865 7.309007
2004-06-28 07:53:05 51°20.816 2°38.987 21.146305 0.025339 0.127886 7.275298
2004-06-28 07:54:03 51°20.841 2°38.669 21.155382 0.025339 0.127905 7.342717
2004-06-28 07:55:05 51°20.868 2°38.33 21.158367 0.025339 0.127924 7.309007
2004-06-28 07:56:05 51°20.893 2°38 21.162109 0.025339 0.127944 7.309007
2004-06-28 07:57:05 51°20.918 2°37.67 21.167124 0.025339 0.127963 7.342717
2004-06-28 07:58:05 51°20.943 2°37.342 21.17003 0.025339 0.127982 7.342717
2004-06-28 07:59:05 51°20.969 2°37.017 21.171661 0.025339 0.127999 7.309007
2004-06-28 08:00:05 51°20.992 2°36.693 21.168955 0.025339 0.128016 7.342717
2004-06-28 08:01:05 51°21.018 2°36.367 21.174408 0.025339 0.128035 7.342717
2004-06-28 08:02:05 51°21.043 2°36.041 21.182566 0.025339 0.128052 7.342717
2004-06-28 08:03:05 51°21.072 2°35.718 21.184277 0.025339 0.128067 7.342717
2004-06-28 08:04:03 51°21.098 2°35.4 21.190126 0.025339 0.128088 7.309007
2004-06-28 08:05:05 51°21.128 2°35.063 21.20051 0.025339 0.128107 7.309007
2004-06-28 08:06:05 51°21.156 2°34.736 21.192155 0.025339 0.128122 7.309007
2004-06-28 08:07:03 51°21.184 2°34.422 21.202857 0.025339 0.128138 7.342717
2004-06-28 08:08:05 51°21.214 2°34.086 21.201186 0.025339 0.128157 7.342717
2004-06-28 08:09:05 51°21.244 2°33.758 21.207949 0.025339 0.128172 7.309007
2004-06-28 08:10:05 51°21.272 2°33.433 21.206 0.025339 0.128184 7.342717
2004-06-28 08:11:03 51°21.338 2°33.134 21.208984 0.025339 0.128196 7.342717
2004-06-28 08:12:05 51°21.54 2°32.98 21.210217 0.025339 0.128213 7.342717
2004-06-28 08:13:05 51°21.769 2°32.941 21.227876 0.025339 0.128237 7.309007
2004-06-28 08:14:05 51°22.002 2°32.939 21.220757 0.025235 0.127736 7.309007
2004-06-28 08:15:05 51°22.236 2°32.941 21.219405 0.025235 0.127727 7.309007
2004-06-28 08:16:05 51°22.467 2°32.951 21.235749 0.025235 0.127762 7.376426
2004-06-28 08:17:05 51°22.672 2°32.831 21.241396 0.025235 0.127789 7.376426
2004-06-28 08:18:05 51°22.786 2°32.552 21.240561 0.025235 0.127808 7.309007
2004-06-28 08:19:03 51°22.811 2°32.242 21.235233 0.025235 0.127835 7.342717
2004-06-28 08:20:05 51°22.817 2°31.907 21.241714 0.025235 0.127878 7.275298
2004-06-28 08:21:05 51°22.826 2°31.585 21.242787 0.025235 0.127937 7.376426
2004-06-28 08:22:11 51°22.808 2°31.233 21.250262 0.025235 0.128006 7.309007
2004-06-28 08:23:10 51°22.791 2°30.917 21.244934 0.025235 0.128073 7.309007
2004-06-28 08:24:10 51°22.783 2°30.592 21.257258 0.025235 0.128142 7.342717
2004-06-28 08:25:10 51°22.777 2°30.268 21.25694 0.025235 0.128211 7.309007
2004-06-28 08:26:09 51°22.77 2°29.949 21.257855 0.025235 0.128279 7.275298
2004-06-28 08:27:10 51°22.762 2°29.62 21.26497 0.025235 0.128341 7.309007
2004-06-28 08:28:10 51°22.755 2°29.297 21.27109 0.025235 0.12841 7.342717
2004-06-28 08:29:10 51°22.737 2°28.973 21.269461 0.025235 0.128475 7.309007
2004-06-28 08:30:11 51°22.718 2°28.647 21.269699 0.025235 0.12853 7.342717
2004-06-28 08:31:17 51°22.699 2°28.294 21.283291 0.025131 0.128079 7.342717
2004-06-28 08:32:17 51°22.681 2°27.972 21.282297 0.025131 0.128147 7.275298
2004-06-28 08:33:17 51°22.663 2°27.651 21.278959 0.025131 0.12821 7.376426
2004-06-28 08:34:17 51°22.644 2°27.33 21.285595 0.025131 0.128288 7.309007
2004-06-28 08:35:17 51°22.624 2°27.006 21.295489 0.025131 0.128347 7.309007
2004-06-28 08:36:23 51°22.632 2°26.647 21.297277 0.025131 0.128428 7.309007
2004-06-28 08:37:23 51°22.665 2°26.322 21.291397 0.025131 0.128482 7.309007
2004-06-28 08:38:23 51°22.819 2°26.094 21.316185 0.025131 0.128556 7.309007
2004-06-28 08:39:23 51°23.029 2°25.96 21.303554 0.025027 0.128101 7.309007
2004-06-28 08:40:26 51°23.25 2°25.823 21.313167 0.025027 0.128153 7.309007
2004-06-28 08:41:26 51°23.463 2°25.693 21.317814 0.025027 0.128195 7.275298
2004-06-28 08:42:26 51°23.691 2°25.621 21.313921 0.025027 0.128234 7.309007
2004-06-28 08:43:26 51°23.93 2°25.608 21.311618 0.025027 0.12822 7.342717
2004-06-28 08:44:25 51°24.165 2°25.619 21.315669 0.025027 0.128323 7.342717
2004-06-28 08:45:26 51°24.409 2°25.639 21.335168 0.025027 0.128358 7.342717
2004-06-28 08:46:26 51°24.65 2°25.655 21.336399 0.025027 0.128376 7.309007
2004-06-28 08:47:26 51°24.889 2°25.666 21.328298 0.024923 0.127857 7.342717
2004-06-28 08:48:28 51°25.137 2°25.681 21.331039 0.024923 0.127894 7.342717
2004-06-28 08:49:31 51°25.387 2°25.695 21.337392 0.025027 0.128445 7.275298
2004-06-28 08:50:33 51°25.633 2°25.747 21.334573 0.024923 0.127906 7.275298
2004-06-28 08:51:33 51°25.872 2°25.825 21.345333 0.024923 0.127934 7.342717
2004-06-28 08:52:33 51°26.111 2°25.906 21.336002 0.024923 0.127846 7.309007
2004-06-28 08:53:33 51°26.35 2°25.984 21.358195 0.024923 0.127958 7.309007
2004-06-28 08:54:33 51°26.59 2°26.06 21.342514 0.024923 0.127964 7.342717
2004-06-28 08:55:33 51°26.831 2°26.139 21.347874 0.024923 0.127983 7.309007
2004-06-28 08:56:33 51°27.072 2°26.215 21.353074 0.024923 0.127981 7.309007
2004-06-28 08:57:33 51°27.312 2°26.294 21.354464 0.024923 0.128006 7.342717
2004-06-28 08:58:33 51°27.552 2°26.368 21.369388 0.024923 0.128006 7.342717
2004-06-28 08:59:33 51°27.794 2°26.447 21.357362 0.024923 0.12803 7.376426
2004-06-28 09:00:33 51°28.035 2°26.525 21.371293 0.024923 0.128043 7.309007
2004-06-28 09:01:30 51°28.266 2°26.6 21.360418 0.024923 0.128034 7.309007
2004-06-28 09:02:33 51°28.521 2°26.677 21.375579 0.024923 0.12806 7.309007
2004-06-28 09:03:33 51°28.753 2°26.755 21.364546 0.024923 0.128036 7.275298
2004-06-28 09:04:38 51°28.878 2°26.775 21.373198 0.024923 0.128069 7.241589
2004-06-28 09:05:38 51°28.89 2°26.819 21.371571 0.024923 0.128081 7.275298
2004-06-28 09:06:38 51°28.901 2°26.862 21.376254 0.024923 0.128088 7.275298
2004-06-28 09:07:38 51°28.913 2°26.904 21.384429 0.024923 0.128092 7.275298
2004-06-28 09:08:37 51°28.93 2°26.944 21.383199 0.024923 0.128097 7.275298
2004-06-28 09:09:38 51°28.95 2°26.987 21.397601 0.024923 0.128101 7.309007
2004-06-28 09:10:38 51°28.971 2°27.03 21.396451 0.024923 0.128106 7.309007
2004-06-28 09:11:38 51°29.047 2°27.057 21.393555 0.024923 0.128109 7.342717
2004-06-28 09:12:37 51°29.242 2°26.978 21.395895 0.024923 0.128115 7.275298
2004-06-28 09:13:38 51°29.469 2°26.878 21.380619 0.024923 0.12812 7.275298
2004-06-28 09:14:37 51°29.689 2°26.783 21.396372 0.024923 0.128113 7.309007
2004-06-28 09:15:37 51°29.914 2°26.689 21.390539 0.024923 0.128127 7.309007
2004-06-28 09:16:38 51°30.144 2°26.595 21.397125 0.024923 0.128122 7.275298
2004-06-28 09:17:38 51°30.371 2°26.505 21.395538 0.024923 0.128129 7.309007
2004-06-28 09:18:37 51°30.593 2°26.416 21.398752 0.024819 0.12761 7.275298
2004-06-28 09:19:38 51°30.822 2°26.325 21.399664 0.024923 0.128145 7.275298
2004-06-28 09:20:37 51°31.045 2°26.24 21.417475 0.024819 0.127622 7.241589
2004-06-28 09:21:37 51°31.272 2°26.153 21.407598 0.024819 0.12761 7.309007
2004-06-28 09:22:37 51°31.5 2°26.067 21.413191 0.024923 0.128157 7.275298
2004-06-28 09:23:38 51°31.731 2°25.981 21.419974 0.024819 0.127645 7.275298
2004-06-28 09:24:37 51°31.959 2°25.926 21.417673 0.024819 0.127636 7.275298
2004-06-28 09:25:37 51°32.199 2°25.971 21.426319 0.024819 0.127657 7.275298
2004-06-28 09:26:37 51°32.439 2°26.015 21.424733 0.024819 0.127673 7.275298
2004-06-28 09:27:38 51°32.682 2°26.058 21.422789 0.024923 0.12821 7.207879
2004-06-28 09:28:38 51°32.92 2°26.112 21.429531 0.024819 0.127675 7.241589
2004-06-28 09:29:38 51°33.153 2°26.236 21.435281 0.024819 0.127678 7.275298
2004-06-28 09:30:37 51°33.377 2°26.363 21.43314 0.024819 0.127712 7.241589
2004-06-28 09:31:38 51°33.6 2°26.548 21.441189 0.024819 0.127722 7.309007
2004-06-28 09:32:37 51°33.815 2°26.718 21.451774 0.024819 0.127696 7.241589
2004-06-28 09:33:41 51°34.047 2°26.916 21.439405 0.024819 0.127712 7.275298
2004-06-28 09:34:41 51°34.249 2°27.138 21.452012 0.024819 0.127719 7.275298
2004-06-28 09:35:41 51°34.456 2°27.356 21.446383 0.024819 0.127757 7.275298
2004-06-28 09:36:41 51°34.664 2°27.56 21.454034 0.024819 0.127743 7.309007
2004-06-28 09:37:41 51°34.869 2°27.771 21.454153 0.024819 0.127773 7.275298
2004-06-28 09:38:41 51°35.075 2°27.992 21.466916 0.024819 0.127772 7.241589
2004-06-28 09:39:46 51°35.294 2°28.235 21.454232 0.024819 0.127773 7.309007
2004-06-28 09:40:53 51°35.522 2°28.482 21.456729 0.024819 0.1278 7.241589
2004-06-28 09:41:53 51°35.728 2°28.704 21.459663 0.024819 0.1278 7.241589
2004-06-28 09:42:53 51°35.932 2°28.921 21.476666 0.024819 0.127822 7.241589
2004-06-28 09:43:53 51°36.134 2°29.146 21.455421 0.024819 0.12781 7.275298
2004-06-28 09:44:53 51°36.338 2°29.367 21.451536 0.024819 0.127819 7.275298
2004-06-28 09:45:55 51°36.55 2°29.594 21.479717 0.024819 0.127794 7.275298
2004-06-28 09:46:55 51°36.754 2°29.816 21.478964 0.024819 0.12784 7.309007
2004-06-28 09:47:54 51°36.957 2°30.031 21.498696 0.024819 0.127849 7.241589
2004-06-28 09:48:55 51°37.162 2°30.255 21.488434 0.024819 0.127847 7.241589
2004-06-28 09:49:55 51°37.356 2°30.499 21.489346 0.024819 0.127867 7.241589
2004-06-28 09:50:56 51°37.547 2°30.761 21.47726 0.024819 0.127888 7.241589
2004-06-28 09:51:55 51°37.731 2°31.018 21.491287 0.024819 0.127898 7.207879
2004-06-28 09:52:56 51°37.92 2°31.284 21.508718 0.024819 0.127902 7.241589
2004-06-28 09:53:55 51°38.108 2°31.536 21.506262 0.024819 0.127896 7.275298
2004-06-28 09:54:55 51°38.294 2°31.797 21.498022 0.024819 0.127921 7.275298
2004-06-28 09:55:55 51°38.482 2°32.055 21.510263 0.024819 0.127926 7.275298
2004-06-28 09:56:55 51°38.674 2°32.309 21.493427 0.024819 0.127935 7.241589
2004-06-28 09:57:56 51°38.867 2°32.564 21.502895 0.024819 0.127937 7.241589
2004-06-28 09:58:55 51°39.064 2°32.793 21.50856 0.024819 0.127912 7.207879
2004-06-28 09:59:55 51°39.262 2°33.028 21.508243 0.024819 0.127953 7.241589
2004-06-28 10:00:56 51°39.469 2°33.262 21.521353 0.024819 0.127958 7.241589
2004-06-28 10:01:56 51°39.667 2°33.498 21.523016 0.024819 0.127925 7.241589
2004-06-28 10:02:55 51°39.863 2°33.729 21.50856 0.024819 0.127951 7.207879
2004-06-28 10:03:59 51°40.074 2°33.98 21.50757 0.024819 0.127951 7.275298
2004-06-28 10:04:59 51°40.277 2°34.213 21.522779 0.024819 0.127953 7.207879
2004-06-28 10:05:58 51°40.472 2°34.445 21.517036 0.024819 0.12799 7.207879
2004-06-28 10:06:59 51°40.674 2°34.682 21.534896 0.024819 0.128015 7.241589
2004-06-28 10:07:58 51°40.869 2°34.915 21.524482 0.024819 0.128002 7.17417
2004-06-28 10:08:59 51°41.074 2°35.151 21.524323 0.024819 0.128015 7.241589
2004-06-28 10:09:59 51°41.275 2°35.385 21.551763 0.024819 0.128038 7.241589
2004-06-28 10:10:59 51°41.474 2°35.611 21.535728 0.024819 0.128022 7.241589
2004-06-28 10:11:59 51°41.671 2°35.844 21.536639 0.024819 0.128036 7.275298
2004-06-28 10:12:58 51°41.867 2°36.075 21.534144 0.024819 0.128062 7.207879
2004-06-28 10:13:58 51°42.063 2°36.311 21.560748 0.024819 0.128062 7.207879
2004-06-28 10:15:02 51°42.198 2°36.653 21.533194 0.024819 0.128071 7.241589
2004-06-28 10:16:03 51°42.236 2°37.035 21.561421 0.024819 0.128078 7.207879
2004-06-28 10:17:03 51°42.161 2°37.379 21.519452 0.024715 0.127521 7.207879
2004-06-28 10:18:06 51°42.036 2°37.701 21.559125 0.024819 0.128082 7.241589
2004-06-28 10:19:05 51°41.907 2°37.99 21.575234 0.024819 0.128092 7.207879
2004-06-28 10:20:07 51°41.775 2°38.294 21.565854 0.024715 0.127543 7.17417
2004-06-28 10:21:06 51°41.657 2°38.595 21.582357 0.024819 0.1281 7.17417
2004-06-28 10:22:07 51°41.538 2°38.901 21.555207 0.024819 0.128115 7.241589
2004-06-28 10:23:07 51°41.421 2°39.205 21.576896 0.024715 0.127582 7.207879
2004-06-28 10:24:07 51°41.306 2°39.51 21.580418 0.024715 0.127584 7.241589
2004-06-28 10:25:07 51°41.192 2°39.821 21.587026 0.024715 0.127602 7.241589
2004-06-28 10:26:07 51°41.078 2°40.133 21.589242 0.024819 0.128131 7.207879
2004-06-28 10:27:06 51°40.961 2°40.434 21.592921 0.024715 0.127623 7.241589
2004-06-28 10:28:05 51°40.851 2°40.744 21.579033 0.024715 0.127631 7.207879
2004-06-28 10:29:05 51°40.743 2°41.063 21.578756 0.024715 0.127667 7.207879
2004-06-28 10:30:05 51°40.636 2°41.382 21.581763 0.024715 0.127677 7.207879
2004-06-28 10:31:07 51°40.521 2°41.706 21.601744 0.024715 0.127654 7.207879
2004-06-28 10:32:07 51°40.41 2°42.018 21.585166 0.024715 0.127647 7.241589
2004-06-28 10:33:07 51°40.3 2°42.332 21.601032 0.024715 0.12766 7.241589
2004-06-28 10:34:07 51°40.187 2°42.652 21.599291 0.024715 0.127699 7.207879
2004-06-28 10:35:07 51°40.075 2°42.967 21.623894 0.024715 0.127713 7.241589
2004-06-28 10:36:06 51°39.968 2°43.27 21.603484 0.024715 0.1277 7.241589
2004-06-28 10:37:07 51°39.857 2°43.587 21.60566 0.024715 0.127704 7.17417
2004-06-28 10:38:07 51°39.746 2°43.901 21.621877 0.024715 0.127697 7.207879
2004-06-28 10:39:06 51°39.64 2°44.208 21.619029 0.024715 0.127732 7.207879
2004-06-28 10:40:05 51°39.534 2°44.518 21.606886 0.024715 0.127725 7.17417
2004-06-28 10:41:07 51°39.412 2°44.831 21.599607 0.024715 0.127734 7.207879
2004-06-28 10:42:07 51°39.23 2°45.001 21.621956 0.024715 0.127716 7.14046
2004-06-28 10:43:07 51°39.028 2°45.071 21.615905 0.024715 0.127744 7.17417
2004-06-28 10:44:07 51°38.825 2°45.026 21.635796 0.024715 0.127785 7.17417
2004-06-28 10:45:07 51°38.624 2°44.973 21.633226 0.024715 0.127801 7.17417
2004-06-28 10:46:07 51°38.427 2°44.905 21.651294 0.024715 0.127819 7.17417
2004-06-28 10:47:07 51°38.231 2°44.819 21.642874 0.024715 0.127815 7.17417
2004-06-28 10:48:05 51°38.045 2°44.721 21.647618 0.024715 0.12786 7.207879
2004-06-28 10:49:07 51°37.887 2°44.516 21.648646 0.024715 0.127902 7.207879
2004-06-28 10:50:06 51°37.823 2°44.208 21.648053 0.024715 0.12793 7.17417
2004-06-28 10:51:06 51°37.774 2°43.883 21.659951 0.024715 0.127966 7.207879
2004-06-28 10:52:06 51°37.761 2°43.552 21.646471 0.024715 0.127991 7.17417
2004-06-28 10:53:07 51°37.805 2°43.206 21.656631 0.024715 0.128035 7.207879
2004-06-28 10:54:07 51°37.854 2°42.866 21.659161 0.024715 0.128071 7.207879
2004-06-28 10:55:07 51°37.901 2°42.525 21.669082 0.024715 0.128099 7.207879
2004-06-28 10:56:07 51°37.947 2°42.183 21.659398 0.024715 0.128119 7.207879
2004-06-28 10:57:07 51°37.991 2°41.842 21.661414 0.024611 0.127606 7.17417
2004-06-28 10:58:05 51°38.035 2°41.514 21.667303 0.024611 0.127615 7.207879
2004-06-28 10:59:06 51°38.061 2°41.17 21.674614 0.024611 0.127626 7.17417
2004-06-28 11:00:07 51°38.011 2°40.841 21.67007 0.024611 0.127629 7.17417
2004-06-28 11:01:07 51°37.954 2°40.518 21.695477 0.024611 0.127629 7.207879
2004-06-28 11:02:07 51°37.857 2°40.224 21.677973 0.024611 0.127626 7.207879
2004-06-28 11:03:06 51°37.737 2°39.964 21.688563 0.024611 0.12762 7.17417
2004-06-28 11:04:07 51°37.598 2°39.72 21.69931 0.024611 0.127608 7.17417
2004-06-28 11:05:07 51°37.406 2°39.646 21.664378 0.024611 0.127606 7.207879
2004-06-28 11:06:07 51°37.2 2°39.634 21.680344 0.024611 0.12758 7.17417
2004-06-28 11:07:07 51°36.996 2°39.606 21.702983 0.024611 0.127569 7.241589
2004-06-28 11:08:07 51°36.791 2°39.571 21.687496 0.024611 0.127578 7.17417
2004-06-28 11:09:06 51°36.59 2°39.538 21.691171 0.024611 0.127571 7.17417
2004-06-28 11:10:07 51°36.38 2°39.507 21.708711 0.024611 0.12756 7.17417
2004-06-28 11:11:07 51°36.174 2°39.474 21.712345 0.024611 0.127549 7.17417
2004-06-28 11:12:07 51°35.967 2°39.437 21.718151 0.024611 0.127537 7.207879
2004-06-28 11:13:07 51°35.764 2°39.374 21.716255 0.024611 0.127516 7.207879
2004-06-28 11:14:06 51°35.563 2°39.322 21.713096 0.024611 0.127537 7.14046
2004-06-28 11:15:07 51°35.356 2°39.267 21.724273 0.024611 0.127553 7.17417
2004-06-28 11:16:07 51°35.153 2°39.234 21.713925 0.024611 0.127572 7.207879
2004-06-28 11:17:07 51°34.968 2°39.387 21.714162 0.024611 0.127587 7.14046
2004-06-28 11:18:07 51°34.79 2°39.587 21.721153 0.024611 0.127574 7.207879
2004-06-28 11:19:07 51°34.61 2°39.779 21.717085 0.024611 0.127619 7.207879
2004-06-28 11:20:07 51°34.446 2°40.009 21.721074 0.024611 0.127645 7.14046
2004-06-28 11:21:07 51°34.295 2°40.258 21.713609 0.024611 0.127704 7.14046
2004-06-28 11:22:11 51°34.128 2°40.518 21.726287 0.024611 0.127755 7.207879
2004-06-28 11:23:11 51°33.929 2°40.635 21.737619 0.024611 0.127782 7.207879
2004-06-28 11:24:11 51°33.719 2°40.723 21.726958 0.024611 0.127809 7.17417
2004-06-28 11:25:11 51°33.508 2°40.74 21.732012 0.024611 0.127835 7.14046
2004-06-28 11:26:09 51°33.304 2°40.712 21.747292 0.024611 0.127891 7.207879
2004-06-28 11:27:11 51°33.086 2°40.688 21.735013 0.024611 0.127901 7.17417
2004-06-28 11:28:10 51°32.877 2°40.669 21.734776 0.024611 0.127957 7.14046
2004-06-28 11:29:11 51°32.668 2°40.607 21.74291 0.024611 0.127941 7.14046
2004-06-28 11:30:11 51°32.475 2°40.474 21.754319 0.024611 0.128034 7.17417
2004-06-28 11:31:10 51°32.283 2°40.353 21.761543 0.024611 0.128082 7.14046
2004-06-28 11:32:11 51°32.081 2°40.241 21.769436 0.024611 0.12812 7.17417
2004-06-28 11:33:10 51°31.881 2°40.155 21.778829 0.024507 0.127635 7.17417
2004-06-28 11:34:11 51°31.675 2°40.062 21.761543 0.024611 0.12819 7.207879
2004-06-28 11:35:11 51°31.477 2°39.943 21.767858 0.024507 0.127721 7.17417
2004-06-28 11:36:11 51°31.282 2°39.816 21.779736 0.024507 0.127778 7.207879
2004-06-28 11:37:11 51°31.086 2°39.687 21.766003 0.024507 0.127817 7.17417
2004-06-28 11:38:11 51°30.891 2°39.561 21.783248 0.024507 0.127864 7.17417
2004-06-28 11:39:10 51°30.698 2°39.437 21.772791 0.024507 0.127911 7.14046
2004-06-28 11:40:11 51°30.512 2°39.274 21.777171 0.024507 0.127949 7.207879
2004-06-28 11:41:11 51°30.394 2°38.993 21.777171 0.024507 0.127994 7.17417
2004-06-28 11:42:11 51°30.276 2°38.708 21.780841 0.024507 0.128037 7.17417
2004-06-28 11:43:11 51°30.154 2°38.425 21.779973 0.024507 0.128084 7.17417
2004-06-28 11:44:11 51°30.031 2°38.141 21.801003 0.024404 0.127595 7.17417
2004-06-28 11:45:10 51°29.909 2°37.862 21.783446 0.024507 0.128161 7.14046
2004-06-28 11:46:09 51°29.786 2°37.585 21.787115 0.024404 0.127658 7.14046
2004-06-28 11:47:11 51°29.656 2°37.293 21.800805 0.024404 0.127703 7.14046
2004-06-28 11:48:11 51°29.532 2°37.006 21.792481 0.024404 0.12773 7.207879
2004-06-28 11:49:11 51°29.406 2°36.721 21.798281 0.024404 0.127764 7.207879
2004-06-28 11:50:11 51°29.281 2°36.435 21.810075 0.024404 0.127804 7.207879
2004-06-28 11:51:11 51°29.157 2°36.15 21.815518 0.024404 0.127843 7.17417
2004-06-28 11:52:11 51°29.031 2°35.866 21.810549 0.024404 0.127883 7.207879
2004-06-28 11:53:11 51°28.909 2°35.58 21.792876 0.024404 0.127918 7.17417
2004-06-28 11:54:11 51°28.733 2°35.408 21.817806 0.024404 0.127956 7.17417
2004-06-28 11:55:11 51°28.522 2°35.374 21.819186 0.024404 0.127988 7.207879
2004-06-28 11:56:11 51°28.31 2°35.43 21.833777 0.024404 0.128032 7.14046
2004-06-28 11:57:11 51°28.098 2°35.505 21.822499 0.024404 0.128048 7.207879
2004-06-28 11:58:11 51°27.883 2°35.57 21.836616 0.0243 0.127568 7.14046
2004-06-28 11:59:11 51°27.667 2°35.631 21.823051 0.0243 0.127593 7.17417
2004-06-28 12:00:10 51°27.452 2°35.684 21.835946 0.0243 0.127633 7.207879
2004-06-28 12:01:11 51°27.232 2°35.745 21.849351 0.0243 0.127666 7.17417
2004-06-28 12:02:11 51°27.016 2°35.804 21.819581 0.0243 0.127691 7.14046
2004-06-28 12:03:11 51°26.8 2°35.863 21.840007 0.0243 0.127735 7.207879
2004-06-28 12:04:15 51°26.568 2°35.922 21.834684 0.0243 0.127767 7.17417
2004-06-28 12:05:15 51°26.352 2°35.99 21.840244 0.0243 0.127796 7.207879
2004-06-28 12:06:15 51°26.139 2°36.075 21.844975 0.0243 0.127827 7.17417
2004-06-28 12:07:14 51°25.931 2°36.153 21.847813 0.0243 0.127793 7.17417
2004-06-28 12:08:15 51°25.714 2°36.237 21.842373 0.0243 0.127883 7.207879
2004-06-28 12:09:15 51°25.506 2°36.324 21.833107 0.0243 0.127905 7.14046
2004-06-28 12:10:15 51°25.301 2°36.427 21.8555 0.0243 0.127933 7.207879
2004-06-28 12:11:15 51°25.096 2°36.55 21.854791 0.0243 0.127953 7.207879
2004-06-28 12:12:15 51°24.891 2°36.67 21.859718 0.024196 0.127429 7.207879
2004-06-28 12:13:15 51°24.689 2°36.808 21.893451 0.024196 0.127424 7.17417
2004-06-28 12:14:15 51°24.484 2°36.947 21.879266 0.024196 0.127451 7.17417
2004-06-28 12:15:22 51°24.254 2°37.095 21.866616 0.024196 0.127469 7.14046
2004-06-28 12:16:24 51°24.043 2°37.235 21.903851 0.024196 0.127493 7.17417
2004-06-28 12:17:24 51°23.841 2°37.37 21.883797 0.024196 0.127491 7.17417
2004-06-28 12:18:23 51°23.642 2°37.5 21.874261 0.024196 0.127495 7.241589
2004-06-28 12:19:25 51°23.425 2°37.61 21.874104 0.024196 0.1275 7.14046
2004-06-28 12:20:23 51°23.219 2°37.677 21.878202 0.024196 0.127529 7.17417
2004-06-28 12:21:24 51°23 2°37.75 21.887777 0.024196 0.127554 7.17417
2004-06-28 12:22:23 51°22.788 2°37.821 21.901015 0.024196 0.127576 7.207879
2004-06-28 12:23:23 51°22.571 2°37.89 21.893372 0.024196 0.127567 7.14046
2004-06-28 12:24:24 51°22.351 2°37.962 21.891835 0.024196 0.12758 7.17417
2004-06-28 12:25:23 51°22.139 2°38.029 21.888841 0.024196 0.127544 7.17417
2004-06-28 12:26:23 51°21.922 2°38.097 21.919527 0.024196 0.127618 7.14046
2004-06-28 12:27:23 51°21.706 2°38.172 21.939177 0.024196 0.127655 7.14046
2004-06-28 12:28:23 51°21.503 2°38.318 21.898966 0.024196 0.127676 7.17417
2004-06-28 12:29:23 51°21.3 2°38.473 21.912123 0.024196 0.127691 7.17417
2004-06-28 12:30:23 51°21.124 2°38.688 21.895617 0.024196 0.127715 7.17417
2004-06-28 12:31:24 51°20.954 2°38.929 21.932523 0.024196 0.127718 7.14046
2004-06-28 12:32:23 51°20.789 2°39.151 21.908775 0.024196 0.127749 7.17417
2004-06-28 12:33:25 51°20.665 2°39.448 21.935791 0.024196 0.12776 7.17417
2004-06-28 12:34:23 51°20.652 2°39.781 21.930396 0.024196 0.127782 7.14046
2004-06-28 12:35:23 51°20.661 2°40.132 21.921418 0.024196 0.127795 7.17417
2004-06-28 12:36:24 51°20.64 2°40.491 21.927718 0.024196 0.127806 7.17417
2004-06-28 12:37:25 51°20.615 2°40.845 21.931853 0.024092 0.12727 7.14046
2004-06-28 12:38:24 51°20.593 2°41.192 21.967756 0.024196 0.127819 7.17417
2004-06-28 12:39:24 51°20.571 2°41.543 21.935948 0.024092 0.127281 7.14046
2004-06-28 12:40:24 51°20.549 2°41.888 21.994081 0.024092 0.127288 7.14046
2004-06-28 12:41:24 51°20.526 2°42.232 21.970432 0.024092 0.127292 7.14046
2004-06-28 12:42:24 51°20.504 2°42.572 21.943941 0.024092 0.127295 7.14046
2004-06-28 12:43:23 51°20.476 2°42.91 21.976256 0.024092 0.127294 7.17417
2004-06-28 12:44:23 51°20.454 2°43.257 21.948311 0.024092 0.127297 7.14046
2004-06-28 12:45:21 51°20.412 2°43.589 21.975941 0.024092 0.127305 7.106751
2004-06-28 12:46:24 51°20.367 2°43.952 22.003207 0.024092 0.127308 7.14046
2004-06-28 12:47:24 51°20.324 2°44.296 21.989477 0.024092 0.127308 7.106751
2004-06-28 12:48:23 51°20.241 2°44.612 21.986763 0.024092 0.127301 7.14046
2004-06-28 12:49:24 51°20.155 2°44.942 21.994159 0.024092 0.127306 7.14046
2004-06-28 12:50:25 51°20.063 2°45.273 22.002421 0.024092 0.127306 7.14046
2004-06-28 12:51:24 51°19.983 2°45.595 22.041551 0.024092 0.127308 7.14046
2004-06-28 12:52:25 51°19.901 2°45.915 22.019688 0.024092 0.127305 7.14046
2004-06-28 12:53:25 51°19.818 2°46.229 22.042219 0.024092 0.127305 7.17417
2004-06-28 12:54:23 51°19.712 2°46.518 22.008872 0.024092 0.127305 7.14046
2004-06-28 12:55:23 51°19.591 2°46.812 21.984992 0.024092 0.127305 7.14046
2004-06-28 12:56:23 51°19.467 2°47.108 22.041826 0.024092 0.127306 7.073042
2004-06-28 12:57:24 51°19.352 2°47.414 22.05075 0.024092 0.127308 7.14046
2004-06-28 12:58:24 51°19.245 2°47.722 22.020474 0.024092 0.127301 7.106751
2004-06-28 12:59:23 51°19.139 2°48.027 22.086122 0.024092 0.127301 7.106751
2004-06-28 13:00:25 51°19.027 2°48.342 22.025312 0.024092 0.127297 7.106751
2004-06-28 13:01:24 51°18.925 2°48.64 22.041079 0.024092 0.12729 7.106751
2004-06-28 13:02:23 51°18.825 2°48.937 22.085886 0.024092 0.127279 7.14046
2004-06-28 13:03:24 51°18.722 2°49.24 22.087733 0.024092 0.127266 7.17417
2004-06-28 13:04:24 51°18.619 2°49.536 22.068596 0.024092 0.127255 7.106751
2004-06-28 13:05:23 51°18.516 2°49.833 22.07787 0.024092 0.127239 7.073042
2004-06-28 13:06:23 51°18.409 2°50.139 22.126581 0.024092 0.127225 7.14046
2004-06-28 13:07:23 51°18.299 2°50.442 22.14794 0.024092 0.127212 7.106751
2004-06-28 13:08:23 51°18.166 2°50.717 22.092919 0.024092 0.127188 7.106751
2004-06-28 13:09:27 51°18.026 2°51.01 22.121476 0.024092 0.127185 7.14046
2004-06-28 13:10:27 51°17.897 2°51.285 22.080424 0.024092 0.127165 7.106751
2004-06-28 13:11:27 51°17.766 2°51.56 22.115977 0.024092 0.127146 7.106751
2004-06-28 13:12:27 51°17.627 2°51.827 22.086318 0.024092 0.127127 7.106751
2004-06-28 13:13:27 51°17.462 2°52.064 22.10223 0.024092 0.12711 7.14046
2004-06-28 13:14:27 51°17.269 2°52.237 22.079285 0.024092 0.127085 7.106751
2004-06-28 13:15:27 51°17.051 2°52.332 22.071347 0.024092 0.127074 7.14046
2004-06-28 13:16:27 51°16.838 2°52.443 22.152416 0.024092 0.127058 7.106751
2004-06-28 13:17:33 51°16.602 2°52.571 22.125167 0.024092 0.127043 7.106751
2004-06-28 13:18:31 51°16.395 2°52.69 22.144721 0.024092 0.127025 7.106751
2004-06-28 13:19:32 51°16.178 2°52.815 22.171177 0.024092 0.127009 7.14046
2004-06-28 13:20:32 51°15.968 2°52.947 22.174238 0.024092 0.126993 7.073042
2004-06-28 13:21:32 51°15.758 2°53.083 22.168979 0.024196 0.127513 7.073042
2004-06-28 13:22:34 51°15.55 2°53.245 22.137026 0.024196 0.127496 7.14046
2004-06-28 13:23:34 51°15.354 2°53.416 22.15375 0.024092 0.126938 7.106751
2004-06-28 13:24:33 51°15.171 2°53.601 22.181537 0.024196 0.127464 7.073042
2004-06-28 13:25:33 51°15.005 2°53.826 22.216608 0.024196 0.127446 7.14046
2004-06-28 13:26:33 51°14.849 2°54.053 22.175141 0.024196 0.127427 7.14046
2004-06-28 13:27:33 51°14.711 2°54.294 22.155831 0.024196 0.127409 7.073042
2004-06-28 13:28:34 51°14.577 2°54.548 22.203233 0.024196 0.127389 7.106751
2004-06-28 13:29:34 51°14.459 2°54.812 22.223197 0.024196 0.127373 7.073042
2004-06-28 13:30:34 51°14.356 2°55.08 22.18962 0.024196 0.127357 7.106751
2004-06-28 13:31:34 51°14.251 2°55.286 22.232177 0.024196 0.127337 7.106751